Cloud_Cover
100 83 100 76 100 100 100 100 100 99 100 100 100 100 100 100 100 100 100 100 100 100 100 100 100 100 100 100 100 100 100 100 22 100 100 100 100 100 100 100 100 98 5 5
46 20 100 100 100 100 100 100 100 100 100 100 100 93 100 100 100 100 100 100 100 100 100 100 100 100 100 100 100 100 100 100 100 77 21 89 100 100 100 100 99 18 99 100
5 43 100 100 100 100 100 100 100 100 100 100 87 68 100 100 100 100 100 100 100 100 100 100 100 100 100 100 100 100 100 100 100 100 100 85 92 98 100 99 15 69 96 99
5 99 100 100 100 100 100 100 100 100 100 100 100 100 99 100 100 100 100 100 100 100 100 100 100 100 100 100 100 100 100 100 100 100 100 100 100 96 100 100 100 92 91 93
5 100 100 100 100 100 100 100 100 100 100 100 100 100 100 100 100 100 100 100 100 100 100 100 100 100 100 100 100 100 100 100 100 100 100 100 100 100 86 100 100 100 100 100
37 100 100 100 100 100 100 100 100 100 100 100 100 100 100 100 100 100 100 100 100 100 100 100 100 100 100 100 100 100 100 100 100 100 100 100 100 100 100 100 100 100 97 100
9 92 100 100 100 100 100 100 100 100 100 100 100 100 95 100 100 100 100 100 100 100 100 100 100 100 100 100 100 100 100 100 100 100 100 100 100 100 100 100 100 100 100 100
1 100 100 100 100 100 100 100 100 100 100 100 100 100 100 100 100 100 100 100 100 100 100 100 100 100 100 100 100 100 100 100 100 100 100 100 98 100 100 100 100 100 100 100
18 28 100 100 100 100 100 100 100 100 100 100 100 100 100 100 100 100 100 100 100 100 100 100 100 100 100 100 100 100 100 100 100 100 100 100 100 100 100 100 100 100 100 100
100 4 77 100 100 100 100 100 100 100 100 100 100 100 100 100 100 100 100 100 100 100 100 100 100 100 100 100 100 100 100 100 100 100 100 100 100 100 100 100 100 100 100 100
100 82 0 76 100 100 100 100 100 100 100 100 100 100 100 100 100 100 100 100 100 100 100 100 100 100 100 100 100 100 100 100 100 100 100 100 100 100 100 100 100 100 100 100
100 89 0 2 100 100 100 100 100 100 100 100 100 100 100 100 100 100 100 100 100 100 100 100 100 100 100 100 100 100 100 100 100 100 100 100 100 100 100 100 100 100 100 100
100 81 0 1 100 100 100 100 100 100 100 100 100 100 100 100 100 100 100 100 100 100 100 100 100 100 100 100 100 100 100 100 100 100 100 100 100 100 100 100 100 100 100 100
96 1 5 5 10 100 100 100 100 100 100 100 100 100 100 100 100 100 100 100 100 100 100 100 100 100 100 100 100 100 100 100 100 100 100 100 100 100 100 100 100 100 100 100
100 100 43 100 94 100 100 100 100 100 100 100 100 100 100 100 100 100 100 100 100 100 100 100 100 100 100 100 100 100 100 100 100 100 100 100 100 100 98 100 100 100 99 100
100 99 100 70 78 100 100 100 100 100 100 100 100 100 100 100 100 100 100 100 100 100 100 100 100 100 100 100 100 100 100 100 100 100 91 20 36 86 80 80 62 13 16 11
59 46 98 100 100 98 100 100 100 100 100 100 100 100 100 100 100 100 100 100 100 100 100 100 100 100 100 100 100 100 100 100 100 100 100 100 63 6 5 5 5 25 5 5
34 30 7 29 64 94 92 100 100 100 100 100 100 100 100 100 100 100 100 100 100 100 100 100 100 100 100 100 100 100 100 100 100 100 99 54 8 5 5 5 9 47 5 6
57 5 1 5 84 58 19 28 100 100 100 100 100 100 100 100 100 100 100 100 100 100 100 100 100 100 100 100 100 100 100 100 100 100 100 66 80 77 55 46 15 40 17 82
7 2 5 13 5 5 5 5 8 99 100 100 100 100 100 100 100 100 100 100 100 100 100 100 100 100 100 100 100 100 100 100 100 100 100 100 98 100 100 96 100 86 100 64
24 90 69 38 5 5 5 5 21 17 60 100 100 100 100 100 96 100 100 100 100 100 100 100 100 100 100 100 100 100 100 100 100 100 100 100 100 100 100 100 98 79 74 6
12 57 100 88 7 15 12 88 22 7 98 89 96 99 99 100 100 99 100 100 99 100 100 100 100 100 100 100 100 100 100 100 100 100 100 90 98 60 35 11 5 5 5 5
94 100 99 81 47 7 7 5 75 92 99 98 98 68 79 91 76 92 100 100 100 84 99 42 93 100 88 79 58 64 64 61 30 20 17 6 5 5 5 5 5 5 5 5
100 97 88 95 100 98 100 100 100 98 100 100 99 87 70 82 72 76 100 94 31 70 100 59 72 70 52 55 61 62 9 5 5 5 5 5 5 5 5 6 5 7 5 5
87 86 100 100 100 100 100 100 98 99 100 100 100 85 94 87 73 88 89 99 84 41 9 10 52 51 57 53 12 5 5 5 5 5 5 5 5 8 10 5 5 6 28 24
56 44 100 100 100 100 100 100 100 100 100 100 100 100 99 100 100 100 78 83 63 70 88 95 100 100 93 92 92 95 91 87 80 63 36 7 13 37 46 35 7 5 5 5
32 96 21 99 100 99 100 100 100 100 100 100 100 100 100 96 100 97 100 100 100 100 100 100 100 100 100 100 82 89 99 100 100 84 53 45 5 77 51 12 5 5 5 5